Regional Weather Roundup
Issued by NWS Charleston, SC

Current Version | Previous Version | Graphics & Text | Print | Product List | Glossary On
Versions: 1 2 3 4 5 6 7 8 9 10 11 12 13 14 15 16 17 18 19 20 21 22 23 24 25 26 27 28 29 30 31 32 33 34 35 36 37 38 39 40 41 42 43 44 45 46 47 48 49 50
000
ASUS42 KCHS 231325
RWRCHS

REGIONAL WEATHER ROUNDUP
NATIONAL WEATHER SERVICE CHARLESTON SC
900 AM EDT WED APR 23 2014

NOTE: "FAIR" INDICATES FEW OR NO CLOUDS BELOW 12,000 FEET WITH NO
SIGNIFICANT WEATHER AND/OR OBSTRUCTIONS TO VISIBILITY.

NOT ALL STATIONS ARE QUALITY CONTROLLED BY THE NATIONAL
WEATHER SERVICE. USE DATA WITH CAUTION...ESPECIALLY
DEWPOINT OBSERVATIONS.

SCZ027-030-031-034>040-042>050-231400-
...SOUTH CAROLINA...

CITY           SKY/WX    TMP DP  RH WIND       PRES   REMARKS
N CHARLESTON   MOSUNNY   67  60  78 W7        29.85S
WATERFRONT PRK   N/A     66 N/A N/A NW8         N/A
FORT JOHNSON     N/A     64  63  94 NW15      29.89R
MOUNT PLEASANT LGT RAIN  66  63  88 NW8       29.84S
JOHNS ISLAND   SUNNY     72  63  73 NW8       29.85S
PINOPOLIS        N/A     66  61  82 W6        29.75F
MONCKS CORNER  FAIR      66  63  88 W3        29.84S
SUMMERVILLE    NOT AVBL
BEAUFORT MCAS  MOSUNNY   67  61  81 N8        29.87R
BEAUFORT ARPT  FAIR      68  63  83 W6        29.87R
HILTON HEAD IS SUNNY     66  61  82 W12       29.87
GEORGETOWN     NOT AVBL
WALTERBORO     SUNNY     64 N/A N/A NW8       29.88R
ORANGEBURG     SUNNY     64  59  83 NW5       29.86R
BARNWELL       FAIR      64  63  94 W7        29.89R
AIKEN          CLOUDY    61  61 100 NW7       29.92R FOG
MANNING        FAIR      68  68 100 NW5       29.86R
KINGSTREE      NOT AVBL
COLUMBIA       SUNNY     66  58  75 NW7       29.86R
SUMTER         SUNNY     63  60  87 NW8       29.84R
FLORENCE       SUNNY     66  58  75 NW7       29.84R
MYRTLE BEACH   MOSUNNY   63  59  88 NW9       29.82R
N MYRTLE BEACH SUNNY     66  58  75 NW8       29.81R

$$

GAZ063-065-086>088-099>101-113>116-118-119-134-136>141-150-231400-
...GEORGIA...

CITY           SKY/WX    TMP DP  RH WIND       PRES   REMARKS
SAVANNAH ARPT  CLOUDY    64  62  93 W9        29.89R FOG
HUNTER AAF     CLOUDY    63  63 100 W7        29.87R
FORT STEWART   CLOUDY    62  62 100 W8        29.89R
STATESBORO     NOT AVBL
SYLVANIA       SUNNY     67  62  86 NW8       29.89R
CLAXTON        CLOUDY   N/A N/A N/A W7        29.91R FOG
THOMSON        SUNNY     64  60  90 W8        29.94R
AUGUSTA-BUSH   SUNNY     65  59  81 N5        29.88R
AUGUSTA-DANIEL SUNNY     65  59  81 NW9       29.89R
SWAINSBORO     FAIR      64  64 100 NW7       29.91R
VIDALIA        CLOUDY    63  63 100 W5        29.92R FOG
ALMA           SUNNY     66  61  84 W6        29.91S
WAYCROSS       NOT AVBL
JESUP          FAIR      68  63  83 NW8       29.91S
BRUNSWICK      SUNNY     70  63  78 W7        29.91S
SAINT SIMONS   SUNNY     69  62  78 W10       29.90S

$$

SCZ027-028-034-036>038-045-046-048>050-GAZ119-141-231400-
...LAKE AND SUPPLEMENTAL COASTAL OBSERVATIONS...

STATION/POSITION TIME  TEMP    WIND        PRES    WAVE   SWELL
                       AIR SEA DIR/SP/G            HT/PER HT/PER/DIR
                 (UTC) (F)     (DEG/KT/KT) (MB)    (FT/S) (FT/S/D)
UPR LAKE MARION  NOT AVBL
WINYAH BAY       1300   63     290/  8     1010.0R
LAKE MURRAY      1200   61     270/  4/  5 1010.8R
ACE BASIN NERRS  1300   66     290/  3     1011.0S
FORT PULASKI     NOT AVBL
SAPELO ISLAND    1300   69     280/  9     1012.0S

$$

ANZ835-935-AMZ111-154-330-350-352-354-374-450-454-472-231400-
...C-MAN AND BUOY OBSERVATIONS...

STATION/POSITION TIME  TEMP    WIND        PRES    WAVE   SWELL
                       AIR SEA DIR/SP/G            HT/PER HT/PER/DIR
                 (UTC) (F)     (DEG/KT/KT) (MB)    (FT/S) (FT/S/D)
FOLLY BEACH CMAN 1300   67     300/  6/  9 1010.9R
BUOY 41004       1300   65 67  270/ 12/ 14 1010.1R   3/ 9   2/ 9
BUOY 41008       1300   65 64  270/ 14/ 16 1011.9R   2/ 9   2/100/ 9
5E ST. MARYS GA  1300      65                N/A     2/ 9
FRYING PAN BUOY  1300   64 67  290/ 16/ 17 1008.5R   3/ 8   2/110/ 8
BUOY 41025       1300   62 75   10/ 21/ 27 1006.2R   4/ 8   3/190/ 8
CAPE LOOKOUT NC  1300   64     320/  8/  9 1007.3R
BUOY 41002       NOT AVBL
BUOY 41010       1300   74 76  300/ 12/ 16 1012.8R   4/ 8   3/ 60/ 8
BUOY 41012       NOT AVBL
ST AUGUSTINE FL  1300   67     280/  6/  9 1013.8R
CAPERS NEARSHORE NOT AVBL
FRIPP NEARSHORE  1200   65     280/  8/ 10   N/A


$$



USA.gov is the U.S. government's official web portal to all federal, state and local government web resources and services.